Wind_Speed
3 5 7 6 5 5 7 3 5 7 8 7 6 4 7 7 7 5 4 6 2 5 8 11 12 13 14 13 11 12 13 12 13 12 11 10 10 9 10 10 10 10 10 11 14 16 18 19 18 17 16 16 15 14 14 13 12 11 10 9 8 7 5 3 3 3 3 3 4 5 7 8 8 8 7 4 3 3 3 3 4 3 3 4 5 4
3 7 9 3 4 5 3 1 5 6 6 6 7 7 8 9 8 3 3 5 2 4 9 12 13 15 14 13 12 11 13 14 14 14 13 13 12 11 12 13 12 11 10 12 14 15 17 19 20 19 17 17 16 15 15 14 13 12 11 10 9 8 7 5 4 4 3 3 4 4 6 6 7 8 7 5 3 3 3 3 3 3 3 4 5 5
7 8 6 4 7 6 2 2 4 6 7 6 7 8 8 7 6 3 5 3 4 4 8 12 14 14 13 13 13 13 12 12 14 15 14 14 14 13 13 13 13 11 11 13 11 12 15 18 20 20 18 18 17 16 15 15 14 13 12 11 10 9 8 7 6 5 4 4 3 4 5 5 6 6 6 4 3 2 3 2 2 3 4 5 6 6
5 4 3 6 6 2 3 4 6 6 6 7 7 7 7 5 5 4 5 4 4 4 8 12 11 9 10 12 13 15 15 13 14 16 15 15 15 14 13 11 10 11 12 12 9 10 14 17 20 20 19 18 17 16 15 15 15 14 13 12 11 10 9 9 8 7 5 4 3 4 3 4 4 4 4 4 3 3 3 3 2 3 5 6 7 7
4 6 7 4 4 4 6 6 7 7 6 8 8 8 7 4 4 4 1 2 4 7 9 9 8 9 11 14 13 13 15 15 15 16 16 15 14 13 12 12 11 10 10 10 10 11 13 16 19 20 20 18 17 16 15 15 15 14 13 13 12 11 10 10 10 9 6 4 3 3 2 2 3 3 4 4 4 3 3 2 2 3 4 6 6 7
3 7 6 4 4 6 8 7 8 7 6 8 9 9 8 7 5 5 3 4 7 7 9 8 7 6 8 12 13 10 12 14 14 15 16 15 14 14 13 13 12 10 9 9 10 12 13 15 18 20 20 18 18 17 16 15 15 15 14 14 14 12 11 11 11 9 7 5 4 3 2 2 1 2 4 4 3 3 3 2 2 3 4 5 6 6
2 5 3 4 5 8 8 8 9 8 7 6 4 7 6 7 6 7 6 7 7 4 7 8 7 5 2 7 11 10 9 11 11 13 15 14 13 14 13 11 11 11 10 9 10 11 13 15 17 18 19 19 18 18 17 16 15 15 14 14 15 13 11 11 11 9 7 5 5 4 3 2 1 2 3 2 2 1 1 1 2 2 3 4 5 6
5 6 4 5 7 8 7 9 9 9 8 3 3 5 5 7 8 8 8 8 7 4 5 10 9 7 5 7 7 10 10 10 11 11 12 12 13 13 12 11 11 12 12 10 10 11 13 15 16 18 19 19 18 18 17 16 15 16 15 15 15 13 12 12 11 10 8 6 5 5 4 3 3 3 3 3 2 1 1 1 1 2 3 3 4 5
5 7 6 7 8 6 8 9 5 8 8 1 2 3 4 7 9 8 8 8 8 6 5 10 9 6 8 7 5 8 9 10 11 11 11 11 12 12 12 11 12 12 12 11 11 11 12 15 17 18 19 19 19 18 17 16 16 16 16 16 16 14 12 13 12 11 9 7 6 5 4 4 4 4 3 3 2 1 1 0 1 2 2 3 3 4
3 5 6 8 8 7 10 7 3 7 7 0 0 5 5 7 8 8 9 7 8 8 8 9 8 6 7 6 6 7 9 10 9 10 11 11 12 11 11 11 11 11 11 12 12 12 13 15 17 18 19 19 18 17 17 16 16 16 16 16 16 15 13 13 13 12 10 9 7 6 5 5 5 4 3 3 2 2 1 1 1 1 2 2 2 3
3 4 4 7 8 8 6 2 2 6 6 1 4 7 7 8 7 7 7 6 8 8 10 13 11 9 7 5 5 6 6 6 6 7 9 11 11 11 10 10 11 11 10 11 12 13 14 16 18 19 19 19 17 16 17 16 16 16 16 17 17 16 14 14 14 13 12 10 8 7 7 6 6 5 4 4 4 3 2 2 2 1 2 2 2 3
8 8 6 7 10 10 5 3 6 9 7 5 7 8 7 7 7 7 6 7 8 7 10 13 11 10 8 6 5 1 5 5 5 6 8 10 11 10 10 10 10 11 11 12 12 12 13 15 17 18 17 17 16 16 17 17 16 16 17 17 18 17 16 15 14 14 13 11 9 8 8 7 7 6 5 5 4 4 3 3 3 2 3 3 3 3
9 10 9 9 11 11 8 7 8 8 8 8 8 7 8 7 6 7 7 7 8 10 12 10 8 9 8 8 8 3 5 7 7 7 8 9 11 10 10 11 10 10 11 11 12 12 12 12 14 16 16 16 17 17 18 17 17 16 16 17 17 18 17 15 15 15 14 12 11 10 9 8 8 7 6 5 5 5 4 4 4 3 4 4 4 4
7 10 11 11 9 10 10 8 6 7 8 8 8 8 8 7 7 9 8 8 9 9 9 6 6 8 8 8 10 10 9 8 8 9 8 8 10 10 10 11 11 12 12 11 12 12 12 12 14 16 18 18 19 18 17 17 17 16 16 17 17 17 17 16 15 15 15 14 12 11 10 9 8 8 7 6 5 5 4 4 5 5 5 5 5 6
8 7 8 9 6 8 12 12 9 8 7 9 10 9 9 8 8 9 8 8 8 6 2 3 5 7 6 3 5 9 9 8 9 11 10 9 9 9 9 10 11 12 12 12 12 12 13 14 16 17 18 18 19 19 17 16 16 16 15 17 17 17 18 18 16 16 16 15 13 12 11 10 9 8 7 6 5 5 5 5 5 5 5 6 6 7
10 8 4 7 5 7 11 12 11 11 9 8 8 9 10 8 8 8 9 10 10 8 5 5 6 6 6 6 5 6 8 9 11 12 12 12 12 11 10 10 11 10 11 11 12 12 12 15 17 18 17 17 17 18 17 16 16 16 15 16 17 17 17 18 16 16 15 15 14 13 12 11 9 8 7 6 6 5 5 5 6 6 6 7 7 8
8 8 3 5 6 8 10 10 10 10 8 5 6 9 9 10 10 8 10 11 10 10 9 8 8 7 8 10 11 12 12 12 12 13 14 13 13 12 11 10 11 11 11 11 11 12 12 13 16 17 17 17 16 16 17 16 16 16 16 16 16 16 17 18 17 16 15 15 14 13 12 11 10 9 8 7 6 6 6 6 6 6 7 7 8 8
6 8 6 8 10 10 10 10 11 11 9 7 8 8 8 9 10 7 8 9 9 10 9 8 11 11 9 8 9 14 16 14 14 13 13 13 13 13 12 11 11 11 12 12 12 13 12 13 15 17 18 17 17 17 16 14 13 15 16 16 17 17 18 19 18 16 16 15 14 13 13 12 10 9 8 7 7 6 6 7 7 7 7 8 8 9
5 8 9 11 14 11 7 8 10 12 14 13 11 9 8 8 9 7 8 8 9 10 8 10 14 12 11 9 9 13 14 12 13 13 13 14 14 13 12 12 12 12 11 11 12 12 11 12 15 17 18 18 19 17 14 14 14 14 15 16 16 17 18 19 18 17 17 16 14 13 12 12 10 9 8 8 7 7 7 8 8 8 8 8 9 10
4 7 8 9 11 10 6 7 9 10 12 12 11 10 9 8 9 9 7 7 9 9 9 12 13 10 10 10 10 14 15 12 12 12 13 14 14 13 11 10 10 10 10 10 11 11 12 12 16 18 18 19 19 14 14 16 16 16 15 15 15 16 18 19 19 18 17 16 14 13 13 12 10 9 9 8 8 8 8 9 9 9 9 10 11 11
5 6 7 9 10 9 7 8 9 10 9 8 9 9 9 8 8 9 8 9 9 9 9 10 11 9 8 8 10 12 13 13 12 11 12 14 13 13 12 10 9 8 9 10 11 11 12 13 16 18 18 19 18 16 17 16 16 16 15 15 16 16 18 20 19 18 17 16 14 13 13 12 10 10 9 9 9 9 9 10 10 10 11 12 13 14
4 6 7 9 9 9 10 10 12 14 11 9 8 9 9 8 8 9 9 10 9 9 9 10 11 10 8 7 9 10 10 12 13 12 11 11 12 13 12 10 10 9 10 11 11 11 11 12 16 18 18 19 15 16 17 16 15 16 15 15 15 16 18 20 19 18 17 16 15 14 13 11 10 10 9 9 10 10 11 11 11 12 12 13 15 17
2 5 8 9 10 12 15 16 17 17 17 14 12 10 10 9 8 9 10 9 9 10 11 11 11 11 9 10 11 11 11 12 12 14 12 9 10 13 11 10 11 11 11 12 12 12 11 12 15 17 18 16 13 13 15 15 15 15 14 15 15 16 18 19 19 18 16 15 14 14 12 11 10 10 10 10 10 11 11 12 12 13 13 15 17 19
2 4 8 9 10 12 16 17 17 17 16 14 13 12 12 11 11 10 10 9 9 10 11 10 11 10 9 10 11 11 12 12 12 13 14 13 11 11 12 12 12 13 13 13 12 12 12 13 14 16 15 14 13 13 15 15 14 13 13 13 14 16 18 18 18 17 16 15 14 13 12 11 10 10 10 10 10 11 11 12 12 14 15 16 17 19
2 5 6 8 9 9 10 11 11 13 11 8 8 8 9 11 13 11 10 8 8 12 14 11 10 10 8 9 12 12 13 14 14 14 14 15 13 12 13 13 13 13 14 14 14 13 14 14 14 13 13 14 15 16 16 14 13 13 13 13 14 16 17 17 17 16 16 15 14 13 12 11 10 10 10 10 10 10 11 12 13 14 15 16 17 20
5 6 6 7 9 8 8 7 5 6 6 5 7 9 9 12 13 11 9 9 10 13 14 12 10 11 12 14 17 16 16 17 17 17 15 14 14 13 13 14 14 14 14 16 16 15 14 14 14 13 13 14 16 16 15 14 13 13 13 13 14 15 16 16 16 16 15 14 13 12 11 10 10 9 9 10 10 10 11 12 13 14 15 16 19 21
5 8 9 10 12 12 13 13 11 11 10 10 13 16 15 15 16 13 10 10 11 12 12 12 13 15 16 18 18 17 18 18 17 18 18 15 13 14 13 12 13 14 16 16 16 16 16 15 14 14 14 15 15 13 12 13 14 15 15 15 15 15 16 16 15 15 14 13 12 11 10 10 9 9 9 9 9 10 11 12 13 14 16 18 20 21
6 9 12 14 17 18 19 20 19 16 15 17 18 19 20 20 20 17 13 14 15 13 12 14 16 16 16 18 21 19 19 19 18 19 19 17 14 14 15 14 13 14 17 16 16 18 18 17 16 14 14 15 14 12 13 14 14 16 16 16 15 15 16 16 15 15 14 13 11 10 9 9 9 8 9 9 9 10 11 12 14 15 17 19 20 21
6 9 12 15 19 21 22 22 20 18 17 18 21 22 22 22 22 19 17 19 18 14 13 17 18 17 16 19 24 23 21 21 20 20 19 19 18 16 17 18 15 16 17 15 17 19 18 16 16 14 14 15 14 14 15 15 15 16 17 16 16 16 16 16 15 15 13 12 11 10 9 9 8 8 9 9 10 10 12 14 15 17 19 20 20 22
7 9 12 14 18 21 22 21 20 19 18 19 22 24 25 24 23 22 21 22 21 18 18 19 19 18 18 21 24 24 22 20 19 19 20 21 22 19 19 20 18 16 18 16 15 19 19 16 15 15 14 14 16 17 16 15 15 16 16 16 17 17 17 16 15 14 13 12 11 10 9 8 8 8 9 9 9 11 13 15 17 18 19 20 21 22
7 8 10 12 14 17 20 18 18 20 19 20 23 25 25 23 21 21 20 17 17 18 18 18 17 16 17 20 23 23 21 19 19 21 22 21 22 21 21 21 19 18 20 16 12 16 18 15 15 16 13 14 16 17 16 15 15 15 15 17 17 17 17 16 15 14 12 11 10 9 9 8 8 8 9 8 10 12 14 16 17 18 19 20 21 22
8 8 10 11 11 14 17 16 18 19 19 21 25 24 22 19 17 17 16 14 14 14 14 15 14 13 15 18 20 20 21 21 21 22 22 20 21 23 23 23 22 20 22 19 10 12 17 15 15 15 13 15 17 17 16 14 14 14 15 17 17 17 16 16 14 13 11 10 9 8 7 7 7 8 8 9 12 14 15 16 17 18 20 21 22 23
9 10 9 10 11 14 17 16 15 15 14 17 18 17 17 17 18 18 17 17 18 15 13 14 13 13 16 17 18 19 21 22 22 20 19 18 20 22 24 26 25 21 23 22 16 13 16 15 13 13 14 16 17 16 15 15 14 14 15 16 16 16 16 15 13 12 11 9 8 7 6 7 7 7 8 10 13 15 15 16 18 19 20 21 22 24
11 11 10 9 10 13 17 16 13 12 14 13 11 11 15 17 18 19 17 17 19 16 13 14 15 18 19 18 19 21 20 21 21 19 19 18 16 16 21 25 22 17 20 22 18 14 15 14 12 14 15 15 15 14 14 14 13 13 14 15 15 15 15 14 12 11 9 8 7 6 6 6 7 8 9 10 13 15 16 18 19 20 20 21 22 25
12 12 11 10 9 11 13 12 12 14 14 13 12 13 16 17 17 19 18 18 19 19 17 16 18 21 20 17 18 18 17 19 19 19 21 21 18 14 14 19 20 14 12 11 11 14 17 15 12 13 14 13 12 12 11 11 12 13 15 15 15 15 14 13 11 10 9 7 6 6 6 6 7 9 9 10 13 15 17 19 20 21 21 21 23 25
14 12 10 10 10 11 11 11 13 14 13 15 16 15 14 15 15 16 17 17 18 18 17 17 18 18 16 15 14 13 15 17 17 18 19 19 22 17 9 14 20 14 6 7 11 15 15 14 13 14 14 13 13 12 11 11 12 13 15 15 15 15 13 12 10 9 8 7 6 6 6 7 8 9 10 10 13 16 19 20 20 21 21 23 25 26
16 13 11 11 11 11 12 13 13 14 14 16 14 10 7 8 8 7 9 12 14 15 14 14 14 14 13 13 13 13 15 15 13 16 17 17 21 18 11 15 18 9 5 10 14 14 14 14 13 14 13 12 12 11 10 11 13 14 15 16 15 14 13 11 9 8 7 6 6 5 5 7 8 9 10 11 14 17 19 20 20 21 22 23 25 25
16 14 12 12 10 10 12 12 11 12 13 12 7 0 2 4 4 3 5 10 12 10 6 6 8 10 11 12 12 13 13 13 12 12 12 14 17 15 14 17 15 9 10 14 16 15 13 14 13 13 12 10 10 9 9 11 14 15 16 16 14 13 12 11 9 7 6 5 4 4 5 7 8 10 12 13 15 17 19 20 20 21 21 23 25 26
17 14 12 12 11 11 12 11 11 11 9 9 6 2 3 3 4 3 6 8 5 5 4 5 7 9 10 11 12 11 10 11 11 9 10 14 17 16 15 16 13 12 14 15 17 15 14 13 12 11 11 9 8 9 10 12 15 16 16 15 14 12 11 9 7 5 4 3 3 4 5 7 8 10 12 13 14 17 19 20 20 20 21 23 25 26
15 12 11 12 12 12 12 11 10 8 9 13 10 1 2 1 0 3 8 5 4 6 6 6 8 10 9 10 10 9 9 10 10 11 13 15 16 15 12 9 8 10 14 16 15 14 14 12 10 9 9 8 8 9 11 13 16 16 15 14 13 11 9 7 5 3 2 2 2 4 5 7 8 10 11 12 14 15 17 19 20 20 22 24 25 25
11 10 10 12 12 12 13 11 9 8 8 9 8 5 2 2 4 7 8 5 6 9 8 7 8 9 9 9 8 7 9 12 14 16 16 12 10 10 6 3 6 9 9 12 11 10 10 10 9 8 7 7 8 9 12 15 16 16 14 13 11 10 8 7 5 3 2 2 3 4 5 7 8 9 10 12 12 14 16 18 19 20 22 23 24 24
10 9 10 11 10 10 11 10 10 9 3 3 6 6 3 4 6 7 7 10 11 12 11 10 9 9 9 10 10 9 12 16 18 17 15 10 7 8 7 5 5 6 0 8 9 7 7 8 8 7 7 7 8 10 14 16 16 15 14 12 10 9 7 6 4 3 2 2 3 4 5 7 8 9 10 11 11 13 15 16 17 20 22 22 23 24
9 9 9 10 9 9 10 10 10 7 1 2 4 6 2 4 7 7 9 12 13 13 13 12 10 9 9 10 12 13 15 18 19 16 14 11 8 10 8 5 5 3 3 6 8 9 8 7 8 8 8 7 9 12 15 17 17 15 13 12 10 8 7 6 4 3 2 2 4 5 6 7 8 9 10 11 11 13 15 15 15 19 22 21 22 24
9 9 9 9 7 7 9 9 7 6 4 4 8 8 5 6 9 9 9 10 10 10 12 12 10 10 10 11 13 15 15 16 18 15 11 10 10 9 7 5 7 9 9 9 9 9 7 6 7 8 8 8 10 13 16 17 17 15 13 11 9 7 6 5 4 3 2 3 4 5 6 7 8 9 10 11 12 13 15 15 16 19 21 21 21 23
8 9 9 9 8 7 9 9 9 10 11 11 11 12 12 12 10 8 9 9 9 8 7 8 11 12 12 12 13 14 14 14 16 14 9 7 9 9 9 9 10 10 9 8 7 7 6 6 6 7 7 8 10 14 17 17 16 15 13 11 9 8 7 6 5 3 1 2 3 4 6 7 8 9 11 12 13 13 14 15 17 19 20 21 21 22
12 12 11 9 8 9 12 13 13 14 14 14 13 13 12 9 5 4 6 7 9 9 7 8 10 12 12 13 13 13 13 14 15 11 7 6 8 11 12 11 9 8 8 8 7 6 5 5 6 7 7 8 11 14 17 17 16 14 12 10 9 8 7 6 4 3 0 2 3 4 6 8 9 10 12 13 13 12 12 14 16 17 19 20 21 22
11 8 7 8 8 8 10 11 12 14 14 14 15 14 8 3 1 2 4 5 8 10 9 9 11 11 11 12 13 13 14 15 13 8 4 6 10 12 12 9 8 8 8 8 7 6 5 5 7 8 8 8 11 14 16 16 15 14 11 10 9 8 6 5 4 2 1 2 3 4 7 8 9 10 12 13 12 11 12 14 15 16 18 18 19 22
6 2 3 8 9 9 12 13 14 16 17 17 17 11 5 3 3 4 4 7 12 12 9 9 10 10 10 12 12 13 13 12 8 4 5 9 10 10 9 7 7 7 7 8 7 7 7 6 7 8 9 9 11 13 15 15 14 14 13 11 9 8 6 5 3 3 2 2 3 6 8 8 8 10 12 13 12 12 12 12 13 14 15 15 15 18
9 6 8 11 10 12 14 15 16 16 17 17 13 5 2 4 7 6 4 9 14 13 9 9 9 9 11 12 11 10 8 5 3 4 8 11 10 9 8 6 6 7 7 7 6 5 5 4 5 6 8 10 11 13 16 15 14 14 14 12 10 8 6 5 4 3 3 3 4 7 8 8 8 10 12 13 13 12 11 12 11 10 11 12 14 17
11 11 12 11 10 10 11 12 12 11 9 11 10 5 3 5 8 8 8 9 12 12 9 9 9 11 10 8 8 8 6 5 6 8 8 7 6 7 7 6 6 7 6 6 6 5 4 3 4 6 9 12 12 13 15 16 15 14 13 11 10 8 7 5 5 3 2 2 4 7 9 9 9 10 12 13 14 13 12 12 10 8 9 14 18 21
11 12 12 11 10 11 12 12 11 10 10 11 10 10 11 10 9 11 11 10 10 9 8 8 9 10 9 6 7 10 10 10 11 10 7 7 7 4 3 3 4 5 4 5 6 5 4 5 6 8 10 12 13 14 15 15 14 14 13 11 10 8 6 5 3 2 2 3 4 4 6 9 10 11 12 13 14 14 14 13 11 10 13 18 22 23
Wind_Direction
234 228 217 228 250 214 196 235 323 346 349 328 316 289 273 271 264 264 132 132 237 254 247 253 251 247 244 240 222 195 196 214 223 224 224 223 226 230 228 230 233 235 236 225 215 202 193 190 186 183 182 181 180 181 179 178 181 178 175 173 165 158 150 156 148 101 67 47 40 37 32 23 20 18 13 13 19 14 13 8 354 350 351 346 341 331
226 245 235 211 37 51 99 3 328 314 307 289 276 267 260 257 255 271 98 121 173 251 261 262 256 253 246 243 240 218 201 208 221 226 229 231 231 234 238 239 240 238 235 234 223 202 194 191 186 185 184 185 187 187 185 185 187 185 184 180 171 163 154 147 139 129 107 69 43 40 36 22 21 23 16 9 13 11 7 9 8 358 339 337 332 315
213 238 236 130 83 66 71 294 273 265 271 260 252 253 255 256 244 185 132 185 225 237 262 261 255 253 246 246 248 241 229 216 214 221 230 239 239 236 236 239 241 240 238 237 220 192 192 191 187 186 186 188 190 191 190 191 192 190 188 186 177 168 160 149 146 145 131 108 79 66 56 39 34 35 35 34 39 29 11 359 349 351 341 332 325 308
228 208 141 100 98 127 222 234 238 241 242 242 248 253 248 253 260 224 167 187 232 246 269 271 266 261 248 245 246 243 243 237 225 223 229 237 241 242 241 243 245 243 241 235 205 180 191 194 190 188 187 188 190 194 194 193 196 195 191 191 181 171 166 155 149 147 139 137 115 93 79 67 66 65 60 57 51 22 355 342 329 342 341 327 314 307
244 115 117 116 125 189 219 215 225 241 237 229 236 254 269 288 281 266 174 160 240 238 248 265 267 257 243 236 237 235 233 236 236 231 231 231 234 240 243 248 252 246 238 223 193 185 195 194 192 190 189 188 190 196 197 194 198 198 194 191 182 174 170 159 153 153 154 163 155 148 156 126 115 98 62 46 35 8 344 336 330 332 326 316 306 302
223 111 136 173 173 211 226 220 220 232 253 245 223 225 268 300 285 267 255 235 253 239 210 226 259 253 227 224 228 227 221 223 232 236 236 231 227 232 237 237 237 232 227 221 204 195 193 191 192 192 190 189 191 196 197 196 198 199 197 190 183 178 172 163 156 156 162 167 162 164 167 136 96 83 65 49 41 15 356 346 330 319 307 305 303 298
156 126 189 191 207 226 228 235 228 222 250 265 195 178 226 274 266 254 250 235 258 266 173 197 266 287 231 218 214 206 209 214 222 235 237 232 227 228 229 222 217 215 210 214 214 199 189 189 191 190 191 191 192 195 196 197 198 200 199 191 184 182 175 168 162 159 166 172 163 153 148 138 102 97 99 90 86 52 17 350 323 306 296 296 297 297
148 156 188 195 226 231 227 241 231 218 237 263 106 157 207 244 244 239 241 239 260 288 173 197 244 277 272 256 216 188 199 213 215 222 224 225 224 220 219 211 204 206 202 200 208 202 190 188 190 189 189 190 191 192 194 196 196 197 199 192 186 187 179 171 168 165 172 181 171 162 159 153 137 126 131 141 145 122 79 15 329 302 295 289 288 291
147 184 192 204 227 230 230 238 206 203 232 252 97 217 225 238 237 233 239 244 253 266 244 220 222 247 259 249 194 178 210 225 216 213 212 214 217 213 212 210 204 203 199 194 198 202 195 188 188 187 185 187 191 191 190 192 193 193 195 192 188 188 181 174 172 170 173 175 173 175 175 163 147 145 152 156 158 161 162 143 321 304 301 289 280 282
158 195 204 213 226 229 232 237 154 191 230 347 218 245 244 240 236 236 244 252 253 250 258 247 216 224 259 242 193 193 220 232 220 212 209 207 213 210 206 210 210 203 196 193 194 196 195 188 184 183 184 188 189 186 187 189 189 188 189 189 189 189 185 179 177 175 174 171 175 182 174 167 161 157 165 166 163 181 206 221 249 291 299 292 285 277
193 174 219 228 233 247 250 248 163 215 235 231 238 240 232 229 227 235 242 254 263 247 244 247 224 219 258 262 238 211 192 211 223 219 207 199 205 206 201 206 209 204 198 195 194 191 189 186 184 185 186 186 182 181 186 187 184 184 186 189 192 192 189 184 181 180 177 173 180 182 172 170 171 166 171 176 178 192 222 246 249 262 277 280 282 278
209 190 212 222 229 247 251 211 213 225 230 223 234 241 234 226 224 236 238 239 257 251 245 246 222 216 241 255 277 298 146 187 230 242 221 197 198 202 201 207 210 210 204 197 197 190 185 185 184 185 186 182 179 182 186 184 181 183 187 191 194 194 191 186 183 182 180 178 180 180 175 175 175 174 177 181 184 190 212 237 244 255 264 267 269 269
215 213 212 207 211 222 229 222 209 210 220 227 232 236 242 242 233 239 239 234 240 239 247 248 211 213 241 256 275 280 174 197 221 246 235 198 197 203 204 209 211 217 216 204 202 197 191 191 185 184 188 185 185 189 187 183 182 184 188 192 195 195 192 188 186 185 182 183 183 181 180 180 180 183 185 187 189 193 208 224 230 248 262 265 266 265
222 224 211 206 199 202 224 235 218 205 210 224 234 232 239 252 252 249 247 246 249 244 245 244 219 229 249 259 259 246 222 204 204 229 235 206 202 207 212 217 212 212 220 217 211 205 199 197 192 192 195 191 190 193 190 184 184 186 189 192 195 196 193 190 189 188 186 186 185 184 184 184 185 187 189 194 197 200 211 222 229 242 254 260 263 264
262 250 208 207 201 196 218 235 249 255 232 221 237 246 247 251 258 265 271 271 277 293 284 208 220 235 243 253 252 243 233 212 202 212 215 209 211 216 222 230 227 216 214 217 219 214 202 194 193 197 200 197 196 197 196 192 187 187 189 192 195 195 193 191 190 189 189 188 185 184 184 186 189 190 193 198 201 205 215 226 236 243 249 258 263 264
268 273 217 198 202 203 219 230 244 259 254 232 235 247 249 254 260 266 277 284 292 302 281 230 226 231 249 272 266 238 228 220 216 210 207 207 207 213 218 224 234 231 221 217 218 216 204 194 195 198 200 201 200 198 198 198 192 186 187 189 193 196 193 191 192 191 191 189 186 184 184 186 188 190 195 200 202 206 217 229 242 249 252 259 264 266
261 275 251 186 196 219 237 245 239 242 260 263 242 244 253 264 270 267 267 269 270 271 265 253 248 242 253 267 257 239 230 229 228 218 213 212 205 207 213 216 225 230 228 224 219 218 210 198 194 195 199 202 203 203 201 199 193 185 182 183 188 193 192 190 192 194 193 190 186 184 184 185 187 191 195 202 204 208 223 237 246 254 257 261 265 267
269 279 269 237 235 237 246 263 260 250 258 264 256 263 277 273 267 267 267 263 258 260 263 254 251 249 249 260 258 245 236 234 238 230 221 218 211 210 211 212 219 225 226 224 219 217 212 201 194 195 201 201 205 210 200 193 196 188 179 180 184 189 191 191 191 193 192 190 186 185 185 185 187 192 196 203 209 214 228 239 245 254 260 264 267 270
271 276 267 255 257 256 244 254 260 251 246 252 267 277 278 269 259 252 256 261 261 264 264 255 254 254 253 256 258 256 251 238 235 236 233 226 218 215 216 214 217 221 223 222 218 214 210 204 198 200 204 205 211 210 188 179 195 192 179 178 183 188 190 188 188 190 190 189 188 185 185 186 187 193 199 204 211 220 229 237 244 253 261 267 271 275
276 276 272 265 269 269 249 239 252 252 242 245 261 265 260 264 267 264 259 256 260 264 266 266 263 257 257 261 255 261 271 263 237 230 238 239 228 221 222 221 217 216 216 217 214 211 207 204 204 205 206 211 212 192 164 173 186 185 178 176 181 185 186 184 185 188 189 189 188 184 183 186 190 197 202 206 214 223 232 238 244 250 257 265 270 275
268 267 270 277 280 270 245 235 251 264 261 249 250 253 251 250 258 266 262 254 256 261 264 268 269 263 264 271 261 258 271 274 259 238 234 241 237 229 227 225 222 217 214 214 214 213 206 201 208 210 209 217 208 168 157 174 181 178 177 176 179 181 181 183 185 188 189 188 186 183 182 186 191 199 206 212 219 226 235 239 241 247 256 266 273 278
274 269 270 277 277 265 255 255 262 271 276 274 268 267 266 261 262 263 259 255 254 259 265 267 270 270 273 281 277 272 271 272 272 266 251 240 236 235 232 223 219 218 214 213 213 216 215 207 208 211 216 221 205 171 169 178 179 180 177 173 176 180 182 184 184 188 189 187 186 184 184 188 193 203 210 216 224 231 237 241 242 250 263 273 279 280
6 275 271 272 266 265 268 270 272 274 275 274 271 269 271 272 271 267 267 271 270 270 272 269 268 271 275 282 286 284 276 268 271 274 270 257 241 238 236 224 218 220 218 216 214 214 220 218 214 219 220 208 187 176 177 177 179 181 174 172 175 178 182 184 185 189 189 188 188 186 188 194 198 207 213 219 230 236 240 245 248 255 268 276 279 279
35 264 263 270 268 267 268 265 263 261 262 264 261 259 264 267 271 277 282 286 282 274 270 267 266 266 274 284 283 282 284 281 276 275 277 276 259 239 239 237 228 224 220 220 221 217 217 218 219 226 214 183 179 188 178 174 181 177 171 176 178 178 183 183 185 189 188 188 189 188 193 199 203 211 216 224 235 241 245 250 255 263 272 276 277 276
331 273 273 279 277 273 266 257 250 247 247 257 270 279 285 282 281 285 286 282 270 262 262 263 264 269 285 295 292 300 311 305 293 286 283 280 266 244 242 242 236 234 229 225 225 221 218 215 216 223 210 191 201 201 181 176 180 172 172 177 176 178 182 183 185 186 188 189 189 192 198 202 209 217 221 231 240 246 252 258 264 270 275 278 277 276
286 273 278 274 270 273 269 263 271 281 278 283 290 288 283 276 274 276 279 274 265 263 264 264 268 277 287 291 293 300 305 303 299 295 292 291 287 277 263 248 239 237 234 230 228 222 219 215 213 218 215 214 221 210 187 184 180 169 170 172 172 177 179 181 184 185 189 192 190 196 203 207 216 223 228 238 246 252 260 266 271 275 278 279 279 277
276 267 262 259 262 268 272 278 296 309 299 287 285 282 276 269 266 268 269 264 268 274 271 268 275 283 285 287 290 291 291 290 291 292 291 294 304 310 302 285 271 254 237 228 227 223 217 213 213 216 217 220 227 214 189 186 181 168 164 167 171 175 176 178 182 185 190 193 194 202 209 212 220 228 235 245 252 258 265 271 275 280 282 281 280 278
260 261 255 255 259 263 269 277 285 288 282 278 279 278 276 273 269 267 265 267 277 281 274 276 283 285 286 288 288 289 290 288 285 286 286 283 289 303 303 300 303 287 257 234 226 224 217 214 212 211 215 220 219 206 190 187 181 166 161 166 171 172 173 176 179 184 189 191 198 207 212 217 226 233 241 249 255 262 270 278 282 283 283 282 280 278
250 261 259 260 262 264 268 272 274 276 275 275 276 273 271 270 268 267 266 269 273 272 273 283 287 283 281 283 283 284 285 284 284 285 284 279 277 278 280 281 289 293 281 258 239 229 218 217 215 205 212 218 205 193 190 185 175 165 162 167 170 170 171 173 178 183 187 192 199 205 210 219 226 233 243 249 256 268 277 283 285 284 284 282 280 279
245 260 262 265 268 269 269 272 275 277 275 273 271 269 266 265 265 266 266 267 268 267 271 276 279 278 276 277 279 281 282 284 285 283 278 274 268 261 261 263 263 272 282 282 267 246 226 215 215 213 213 207 192 186 188 183 174 169 167 168 168 170 171 173 178 183 188 194 199 202 211 220 227 235 244 252 263 277 283 283 284 285 285 284 282 282
249 260 264 268 272 270 269 272 274 273 272 272 268 264 264 267 268 267 266 268 269 269 269 269 270 272 272 272 275 278 281 282 280 278 274 271 267 262 256 254 248 249 259 268 278 268 247 222 218 222 207 187 187 189 188 184 179 175 171 169 168 171 172 173 178 183 188 195 197 201 212 223 233 240 247 260 275 283 283 283 284 285 285 286 286 285
253 263 267 267 269 269 268 268 268 269 272 270 265 262 264 267 266 266 265 264 263 263 265 265 264 264 268 272 274 276 279 280 278 277 274 270 267 263 257 252 248 244 248 249 252 266 261 242 225 216 188 177 190 194 187 185 185 180 175 172 170 173 174 174 178 183 188 194 198 205 217 228 239 246 253 272 284 284 282 282 284 285 286 288 290 289
257 261 264 263 265 269 270 270 272 276 272 263 260 261 263 261 259 261 262 260 258 256 259 262 261 264 270 274 276 278 279 279 277 277 278 279 277 274 266 256 246 240 242 240 231 239 253 245 220 195 180 183 191 190 187 189 190 186 179 175 174 174 174 174 178 184 188 193 201 209 222 234 243 251 262 279 287 285 282 282 283 285 288 291 292 291
256 259 261 261 263 267 271 275 277 269 258 258 266 266 263 262 262 262 260 259 256 254 256 264 270 271 272 274 278 279 281 283 283 286 289 287 284 285 281 270 258 245 239 235 227 228 233 224 200 180 179 184 184 184 188 187 189 186 178 176 176 174 174 177 182 187 189 193 202 213 227 238 246 258 270 283 287 283 280 282 284 286 290 294 293 291
255 257 258 259 261 266 271 272 264 252 251 263 275 270 267 270 270 268 266 263 263 264 266 269 272 274 277 283 286 289 298 303 301 297 295 290 283 280 283 280 271 259 250 247 239 229 216 199 176 164 169 175 173 175 181 179 180 181 178 179 176 172 177 183 185 188 189 190 203 217 230 242 252 265 277 282 283 281 281 283 286 289 293 295 294 291
252 254 256 257 258 262 265 258 253 258 267 273 275 274 276 277 275 274 271 267 269 274 274 272 273 277 286 295 301 308 313 314 305 290 282 283 281 276 271 273 267 254 250 252 230 212 195 173 156 156 165 173 171 174 183 185 184 184 181 179 175 174 180 185 187 190 187 189 207 220 233 250 259 270 278 281 282 282 284 286 288 293 296 295 293 292
246 248 252 254 252 256 260 259 263 273 274 271 272 278 285 284 284 285 281 276 275 275 277 282 287 294 301 307 315 323 317 309 297 283 275 274 276 272 255 259 265 265 245 223 198 173 161 158 157 158 164 173 176 181 193 191 187 186 181 177 177 179 180 183 189 192 184 190 212 226 241 258 266 271 276 280 282 284 286 289 292 296 297 295 295 295
244 245 250 252 251 255 260 262 267 268 266 270 275 293 53 339 337 333 289 281 279 277 287 313 311 304 307 310 315 320 315 301 288 285 292 293 291 287 269 261 264 262 236 204 164 147 155 160 159 159 164 173 178 187 199 193 186 185 180 177 181 183 183 187 193 189 182 195 220 237 254 267 274 278 280 282 285 287 289 291 294 297 298 297 297 297
250 249 251 252 252 255 258 261 262 260 264 280 285 111 87 355 2 354 293 286 303 325 337 344 320 301 302 311 314 312 305 293 287 296 313 317 315 306 283 268 260 238 212 181 159 161 165 158 157 160 162 170 179 190 202 195 185 182 180 180 184 186 189 194 189 173 176 205 239 256 266 273 276 279 283 286 288 289 291 292 296 299 300 299 299 299
258 254 250 251 253 254 255 261 266 265 273 284 287 286 123 235 186 272 274 286 0 339 320 326 319 309 309 312 310 302 291 288 296 308 315 317 313 298 270 252 256 227 189 171 169 169 158 156 168 167 164 176 185 193 198 189 181 179 181 182 183 185 187 182 167 156 177 223 249 260 265 269 274 278 282 286 289 290 291 294 298 302 304 303 301 302
262 258 254 256 256 252 253 257 265 270 277 293 311 336 350 300 260 258 273 319 341 313 310 323 314 308 313 310 302 295 291 292 297 304 310 311 302 288 261 222 271 261 201 161 153 153 155 168 175 169 173 179 182 190 191 183 178 179 180 179 180 181 175 160 150 155 182 221 250 263 269 274 279 282 284 286 288 291 294 297 301 305 308 306 304 304
265 263 260 259 254 252 258 261 266 272 279 31 353 333 321 290 272 268 298 322 316 306 312 317 309 310 315 307 300 297 294 295 295 297 304 300 264 256 257 234 248 280 320 114 127 160 182 171 159 164 174 172 179 190 186 179 178 179 178 174 175 176 164 148 149 165 179 223 255 269 275 279 283 284 286 288 289 292 297 302 306 307 308 308 307 306
270 265 261 259 255 258 264 261 264 275 253 103 311 299 239 243 281 299 308 306 306 311 313 307 305 314 313 304 302 299 296 297 296 295 307 309 268 239 240 217 176 169 150 145 165 185 185 165 163 174 176 174 186 190 182 178 178 177 174 171 171 173 159 144 148 161 178 235 263 271 273 280 287 288 289 292 293 297 301 306 312 311 308 307 307 307
264 258 263 267 265 263 263 259 273 302 308 279 285 291 281 279 296 307 302 298 304 310 306 301 302 309 310 305 301 299 297 298 294 293 309 320 297 268 251 210 177 179 187 183 171 167 176 184 176 167 165 176 188 185 180 178 177 175 176 174 170 171 166 153 148 149 183 247 270 280 283 291 297 296 296 298 298 299 304 308 311 311 310 310 307 305
264 263 269 272 268 264 265 273 290 301 296 288 286 288 290 292 300 308 304 298 299 299 301 303 302 303 306 306 302 300 299 296 292 295 313 321 296 273 245 214 189 175 175 170 151 153 180 187 162 158 170 179 184 183 179 177 176 175 179 177 169 172 175 161 149 152 208 279 298 304 303 306 306 303 304 303 300 302 307 308 309 313 316 314 308 304
272 273 272 272 280 279 269 267 274 279 283 288 287 285 293 302 313 316 304 295 298 303 308 307 304 308 313 311 305 300 296 291 289 296 320 316 277 252 230 210 185 165 163 158 146 158 181 165 154 172 181 176 182 183 177 177 179 179 180 176 169 176 180 161 149 160 193 334 332 329 323 319 316 312 310 304 299 304 311 310 311 318 321 319 313 307
276 286 281 272 282 287 272 268 279 286 290 292 286 285 300 335 17 299 302 296 294 298 306 313 315 318 321 315 305 296 293 290 286 282 284 276 264 251 232 200 169 161 159 145 142 158 171 166 173 182 180 179 186 182 175 177 181 178 173 169 167 175 174 152 142 143 97 13 348 349 342 331 322 316 312 310 305 307 312 310 312 320 323 322 319 314
285 335 280 263 262 261 262 269 278 281 282 282 281 285 312 334 320 335 338 304 290 291 308 323 323 326 325 315 303 293 288 286 283 267 257 260 258 252 238 201 167 158 146 137 150 165 165 179 194 188 177 178 183 180 177 180 181 172 163 162 171 175 161 135 127 117 83 43 18 9 351 335 327 321 318 318 315 310 310 313 315 318 319 319 320 319
279 266 262 267 265 260 264 269 271 272 277 279 279 286 30 328 317 328 315 290 291 299 317 326 325 327 321 310 303 296 288 284 271 249 255 257 246 231 221 195 168 164 150 139 152 162 159 179 195 183 171 169 176 183 180 178 180 173 160 160 173 171 151 140 142 123 80 52 38 19 354 333 331 333 330 326 321 316 313 316 317 314 313 317 322 322
276 270 268 267 266 265 267 270 271 273 281 282 281 296 331 320 312 305 296 293 296 303 316 323 324 325 322 317 318 319 322 320 288 267 269 281 261 221 199 180 175 177 162 149 162 167 152 159 181 182 171 162 169 182 179 176 180 175 161 165 176 166 155 165 167 137 79 40 38 20 355 334 330 334 334 330 327 324 318 315 318 328 336 335 331 327
265 270 272 268 269 274 274 273 276 283 288 291 299 309 312 315 311 303 302 300 291 293 314 328 327 327 329 334 328 322 324 319 302 292 298 298 278 241 208 207 197 177 162 171 185 174 143 151 173 178 170 163 168 176 175 174 178 172 164 168 172 163 164 178 167 123 48 23 24 9 341 331 331 334 334 332 332 329 323 319 324 336 344 343 337 332
Height
766 774 774 771 766 761 762 764 767 767 768 769 767 768 769 768 764 757 761 767 766 773 773 767 767 764 761 758 755 759 764 767 768 768 768 768 769 769 769 769 770 770 770 769 772 776 780 785 788 792 794 797 799 802 804 806 808 809 810 812 813 814 815 815 816 816 817 817 817 818 818 818 817 818 817 817 817 817 817 817 817 816 817 817 816 817
772 778 770 764 764 761 764 768 771 774 774 775 775 774 773 770 766 759 764 769 769 779 777 767 768 765 759 758 754 753 759 766 768 768 769 767 768 768 767 768 768 767 767 767 769 771 776 782 786 790 792 795 797 799 802 804 806 808 809 810 812 813 814 815 815 816 817 817 818 818 818 818 818 818 817 817 817 817 817 817 817 816 817 817 817 817
777 775 765 762 765 766 771 773 775 777 778 779 776 776 774 766 762 762 768 770 769 779 780 771 769 764 757 757 755 753 755 759 762 764 766 766 766 766 765 766 765 765 766 765 765 769 774 779 783 788 790 792 795 797 800 802 804 806 808 809 811 812 813 814 815 816 817 817 817 817 818 817 817 817 817 817 817 817 817 817 817 816 816 816 816 816
776 769 763 764 765 769 776 776 778 780 780 779 776 776 772 763 765 770 771 773 772 777 780 773 770 765 759 759 757 755 753 753 755 758 761 762 763 762 762 762 763 764 765 764 765 769 774 777 781 785 787 790 793 795 798 800 802 804 806 808 809 811 812 813 814 815 816 816 816 817 817 817 817 817 817 817 817 817 817 817 816 816 816 816 816 816
770 766 764 767 768 772 779 779 781 783 781 777 774 775 770 764 770 773 774 778 776 777 777 776 779 771 760 761 758 752 752 752 753 754 756 757 758 760 760 761 762 762 763 763 765 770 773 775 778 782 785 788 790 793 795 798 800 802 804 806 808 810 811 812 813 814 815 815 816 816 816 816 816 816 816 816 817 817 817 817 816 816 816 816 816 816
766 767 764 768 772 773 778 780 779 782 782 775 770 770 771 770 773 774 776 781 783 781 774 776 787 773 752 755 756 749 750 751 752 752 753 753 755 758 760 760 761 761 762 762 763 767 771 774 776 779 782 785 788 790 793 796 798 800 802 804 806 808 809 810 811 812 814 814 815 815 815 815 814 815 816 816 816 816 816 816 816 816 816 816 816 816
764 768 765 769 775 775 778 778 772 775 782 779 766 763 770 773 776 778 778 782 784 779 770 773 785 775 755 751 748 746 750 751 751 752 751 751 753 754 755 756 758 760 761 762 762 764 768 771 774 776 780 782 785 788 791 794 796 798 800 802 805 806 808 809 809 811 812 813 813 814 814 814 814 814 815 815 816 815 816 816 816 816 816 816 816 816
762 770 770 771 776 776 779 776 767 767 777 779 767 764 771 774 777 778 778 780 774 768 770 771 775 780 770 752 740 742 751 752 751 752 751 750 750 750 751 751 754 757 758 761 763 763 765 769 771 774 777 780 783 786 789 792 794 796 798 800 802 804 806 807 808 809 810 811 812 813 813 813 813 814 814 815 815 815 815 815 815 815 815 815 815 815
764 772 773 774 777 777 773 766 761 765 773 773 767 766 769 771 775 774 775 776 767 768 779 768 765 782 776 749 737 743 750 752 750 749 749 748 747 747 748 749 750 752 754 757 760 762 763 766 769 772 775 778 781 784 787 790 792 794 796 798 800 802 804 805 806 807 808 810 811 811 812 812 813 813 813 814 814 814 814 814 814 814 814 814 814 815
764 767 767 769 774 772 763 755 756 766 771 767 766 768 769 770 772 773 774 772 767 774 783 767 761 779 772 744 737 747 752 750 746 744 744 744 744 744 745 747 747 748 751 753 757 759 761 764 768 771 773 777 779 782 785 788 790 792 794 796 798 800 802 803 804 805 807 808 809 810 811 811 812 812 812 813 813 813 813 813 813 813 813 813 813 814
760 762 763 765 767 762 756 755 759 765 766 766 770 771 771 771 770 773 772 770 776 780 776 762 755 769 772 748 732 738 744 743 741 740 740 740 742 742 743 745 746 746 748 750 753 756 760 763 766 769 771 774 777 781 784 786 788 790 792 794 796 797 799 800 802 803 804 806 807 809 809 810 811 811 811 812 812 812 812 812 812 812 812 812 812 812
759 763 764 761 760 757 758 762 763 762 763 768 772 771 773 774 773 777 776 778 791 787 767 751 748 765 777 755 731 729 734 737 740 739 737 738 740 741 742 743 743 744 745 747 750 753 758 762 765 767 770 772 776 780 782 784 786 788 790 791 793 795 797 798 800 801 802 804 806 807 808 809 809 810 810 811 811 811 811 811 811 811 811 811 811 811
760 759 757 757 756 755 762 766 764 763 765 768 771 773 780 781 779 785 785 784 789 780 756 744 750 768 770 749 733 732 734 735 738 736 734 736 738 740 740 741 742 742 743 744 747 750 755 760 763 766 769 771 775 778 780 782 783 785 787 789 791 793 795 796 798 799 801 802 804 805 806 807 808 808 809 809 810 810 810 810 810 810 810 810 809 809
765 755 749 755 756 753 759 765 766 767 768 770 769 772 781 784 786 788 780 774 772 763 750 746 757 771 764 744 733 731 730 731 733 734 733 733 736 738 738 738 739 740 741 742 743 746 750 756 761 765 767 769 772 775 777 779 781 783 785 787 789 790 792 794 796 797 799 800 802 803 804 805 806 807 807 808 808 809 809 809 809 809 809 808 808 808
773 766 752 754 757 755 756 757 757 757 761 764 759 761 771 775 782 785 775 770 768 762 759 760 768 774 764 745 730 725 725 725 728 731 731 732 734 735 736 736 736 736 738 739 740 741 745 751 757 762 764 766 769 772 774 777 778 780 782 784 786 788 790 792 794 796 797 798 800 801 802 804 805 805 806 807 807 807 808 808 808 808 808 808 807 807
774 768 748 747 751 752 755 751 747 752 758 755 751 760 767 762 767 776 773 770 772 775 771 767 767 761 749 736 725 725 726 724 727 728 729 732 733 734 737 736 736 735 735 736 738 739 742 747 753 758 761 763 765 768 771 773 776 778 780 782 784 786 788 790 792 794 796 797 798 799 801 802 803 804 804 805 806 806 807 807 807 807 807 807 806 806
776 768 747 747 752 749 751 747 743 753 759 755 757 763 758 748 754 770 775 768 772 784 775 762 761 752 744 738 727 726 728 726 727 727 728 730 730 733 736 736 736 735 734 735 736 738 740 744 750 755 759 761 763 765 767 770 774 776 777 779 782 784 786 789 791 792 794 795 797 797 799 800 801 802 803 804 804 805 805 805 806 806 806 806 805 805
772 772 754 750 756 748 744 746 744 745 751 757 761 756 748 748 752 764 778 776 776 784 772 760 762 756 753 748 731 724 727 727 727 727 727 729 730 732 733 733 734 733 733 734 734 737 739 741 746 751 755 758 761 763 765 769 773 774 775 777 779 781 783 786 788 791 792 793 795 796 797 798 799 800 801 802 803 803 804 804 804 805 805 804 804 804
767 778 764 749 753 747 741 751 755 747 744 750 752 746 751 766 766 766 778 783 783 785 774 762 758 752 748 743 733 728 725 723 726 727 727 729 729 731 731 730 731 731 732 733 733 736 737 740 744 748 752 755 757 760 762 767 772 774 774 774 776 779 781 784 786 788 790 792 793 794 795 796 797 798 799 800 801 802 802 803 803 803 803 803 803 803
766 781 775 752 747 748 747 757 763 756 746 745 748 746 749 760 764 762 767 773 778 783 778 768 760 749 737 728 728 730 724 721 725 726 728 728 726 729 729 729 730 730 732 732 733 734 736 739 742 745 749 751 753 757 761 766 770 771 772 772 774 776 778 781 784 786 788 790 791 792 793 794 795 796 797 798 799 800 800 801 801 801 801 801 801 800
768 780 782 764 751 754 757 756 756 754 751 753 757 756 753 755 757 757 758 758 764 773 775 773 767 749 727 718 722 725 723 721 721 721 725 725 723 725 726 727 729 730 731 732 731 732 734 737 740 742 745 747 750 755 760 764 767 769 769 770 772 774 776 779 782 784 786 787 789 790 791 792 794 795 796 796 797 798 798 798 798 799 799 798 798 798
774 780 784 778 768 764 757 746 743 745 746 752 756 755 753 753 757 765 766 756 752 759 763 766 767 748 724 717 718 719 720 720 718 718 720 721 722 723 723 725 728 729 730 730 730 731 732 733 737 740 742 744 747 753 757 760 764 766 766 768 770 772 774 777 779 781 784 785 787 788 789 791 792 793 794 794 795 795 796 796 796 796 796 796 796 796
781 783 786 784 773 764 753 743 742 742 741 746 750 750 750 752 758 768 772 762 755 756 753 756 763 748 725 718 719 719 720 718 718 718 718 719 721 722 723 724 726 728 728 728 728 729 730 731 734 736 738 741 746 751 755 758 761 763 764 765 767 769 772 774 777 779 781 783 785 786 787 789 790 791 792 792 793 793 793 793 793 794 793 793 793 793
785 786 786 781 767 757 749 742 740 740 743 748 748 747 750 753 756 761 765 766 769 768 762 763 766 748 726 720 720 719 719 718 718 719 719 720 720 721 724 724 725 726 726 726 726 727 728 730 731 733 734 739 745 750 753 755 758 760 762 763 765 767 770 772 775 777 779 781 783 784 786 787 788 789 789 790 790 790 791 791 791 791 790 790 790 790
789 787 786 786 779 769 761 753 747 743 745 752 753 753 756 757 759 763 764 768 775 773 767 769 767 747 729 724 721 722 724 724 722 720 720 722 719 719 721 722 723 724 724 725 725 725 726 727 729 730 731 736 742 746 750 753 755 757 759 761 763 765 768 770 772 775 777 779 781 782 784 785 786 787 787 788 788 788 789 789 789 788 788 787 787 787
790 788 787 792 791 784 776 766 758 754 754 756 758 759 761 761 764 769 772 774 774 767 762 765 763 748 735 732 730 730 732 732 728 724 723 723 722 720 719 719 720 721 722 723 723 723 724 725 726 727 729 733 736 739 746 750 752 754 757 759 762 764 766 768 771 773 775 777 779 780 782 783 784 784 785 785 786 786 786 786 786 786 785 785 784 784
791 789 787 789 787 780 773 763 757 760 765 765 763 761 760 758 758 766 775 775 768 762 760 760 757 752 745 741 738 737 736 734 732 730 727 725 726 726 725 723 721 719 718 718 720 721 721 722 723 725 727 731 732 736 742 747 749 751 755 758 760 762 764 767 769 771 773 775 777 778 779 780 781 782 783 783 784 784 784 784 784 783 783 783 782 782
794 792 786 785 782 774 768 764 761 764 768 768 765 762 761 757 755 761 770 768 762 765 765 756 753 757 754 746 741 739 738 736 733 732 729 727 726 727 727 726 726 724 718 714 715 717 717 718 720 722 725 728 731 735 740 744 746 748 752 756 758 760 763 765 767 770 772 773 775 776 777 779 780 780 781 781 782 782 782 782 782 781 781 781 780 780
792 792 784 782 779 771 766 764 762 763 764 764 763 761 760 759 758 760 764 763 763 768 766 757 756 760 756 748 742 737 736 735 732 731 729 726 724 725 726 725 725 726 722 717 716 715 713 715 717 719 723 726 729 735 738 741 744 747 750 753 756 759 761 763 766 768 770 772 773 775 776 777 778 778 779 779 780 780 780 780 780 780 779 779 778 777
787 787 782 781 778 771 766 763 761 763 764 764 762 759 756 755 757 758 758 757 758 760 759 757 759 757 751 745 738 733 731 731 729 728 726 723 721 720 722 722 722 723 722 720 719 714 709 711 714 716 720 724 728 733 737 739 742 745 747 750 754 757 759 762 764 766 768 769 771 773 774 775 776 776 777 777 778 778 778 779 779 778 777 777 776 775
783 784 780 780 781 774 768 766 766 765 765 764 760 753 751 753 755 755 754 754 756 758 757 758 761 756 746 738 734 730 728 727 727 726 723 720 717 715 716 715 715 717 717 717 720 717 710 708 711 713 716 722 727 731 735 738 740 743 745 748 751 755 757 760 762 763 766 767 769 771 772 773 774 774 775 776 776 777 777 777 777 776 775 774 773 772
783 785 780 781 783 775 766 767 766 762 763 762 755 750 752 756 757 755 754 755 758 759 759 760 760 752 740 733 731 728 726 725 725 723 719 716 714 712 711 709 708 711 712 712 716 719 717 713 711 711 714 721 726 730 733 736 738 741 744 746 749 752 755 757 759 761 764 765 767 768 769 771 772 772 773 774 774 775 775 775 774 773 773 772 771 770
782 782 780 782 783 773 764 764 762 764 768 761 747 746 752 753 753 753 752 752 752 754 757 756 750 741 734 731 730 728 725 724 721 718 716 715 714 712 709 704 700 702 706 707 709 715 719 716 710 709 714 720 724 728 731 734 737 739 742 745 747 750 753 755 758 760 762 763 765 766 768 769 770 771 771 771 772 774 774 773 772 771 770 769 769 768
782 782 780 779 779 772 764 762 766 774 771 752 737 740 745 745 747 748 747 746 744 743 744 745 741 735 731 729 728 726 724 721 719 717 715 714 715 717 713 704 695 695 698 700 702 709 714 711 708 710 715 719 723 726 730 733 735 738 741 744 746 748 751 754 756 758 760 762 763 764 766 767 768 769 769 769 770 772 772 771 770 768 768 767 766 765
781 782 780 777 775 770 763 765 777 778 760 740 735 737 737 737 739 740 740 739 737 735 735 739 739 734 729 729 729 729 727 724 723 721 720 716 713 714 717 712 701 695 696 698 702 706 707 705 707 711 716 720 723 727 729 732 734 737 740 742 745 747 750 752 754 756 758 760 762 763 764 765 766 767 767 767 768 769 769 768 767 766 766 765 763 762
777 779 777 775 774 772 767 768 771 763 745 737 737 736 734 736 738 740 742 738 734 733 732 732 732 728 728 730 731 732 731 728 725 721 718 717 712 710 716 717 706 696 696 701 704 704 702 704 708 713 718 721 724 727 729 731 734 736 738 741 744 746 749 751 753 754 757 759 760 762 763 763 764 765 765 765 766 766 766 765 764 764 763 762 760 758
767 770 770 771 771 771 769 764 757 753 748 743 740 738 740 743 744 748 752 744 735 733 732 731 731 732 733 733 733 733 732 729 725 718 712 711 709 706 711 714 705 698 698 701 701 701 702 706 711 715 719 721 723 725 727 730 732 735 737 740 743 745 747 750 751 753 755 757 759 760 761 762 762 763 763 763 763 763 762 762 761 762 761 759 757 755
757 759 763 768 767 766 768 767 763 763 757 745 740 741 745 749 748 753 760 750 734 730 733 735 739 741 741 740 738 737 735 731 724 715 710 710 708 707 709 708 703 701 702 700 698 702 706 709 712 716 719 721 723 724 726 729 731 734 736 739 741 744 746 748 750 752 754 756 757 758 759 760 760 761 761 760 760 760 760 760 759 759 758 757 754 752
751 753 757 764 765 764 770 773 770 764 753 741 739 743 749 754 755 762 767 753 735 735 740 740 742 744 742 741 740 738 737 733 723 714 712 713 712 711 712 707 703 703 703 699 699 703 707 710 713 716 718 720 722 724 725 728 730 733 736 738 740 742 744 746 749 751 753 755 756 757 758 759 759 759 759 759 758 758 758 758 757 757 756 754 752 749
751 752 755 761 763 764 769 769 762 754 746 738 738 742 748 753 760 772 773 753 739 744 744 741 743 743 740 740 740 739 738 732 722 716 716 716 714 713 712 709 706 705 702 699 700 702 706 710 713 715 717 719 721 723 725 727 730 733 735 737 739 741 744 746 749 751 752 754 755 756 756 757 757 757 757 757 757 757 757 756 755 755 754 752 749 747
754 753 754 757 762 764 765 762 756 751 745 742 744 745 746 750 759 768 762 744 740 745 741 738 741 740 738 739 738 736 735 730 724 721 719 718 716 714 712 710 710 708 702 698 701 704 707 710 712 713 716 718 720 722 724 726 729 732 734 736 739 741 744 747 749 751 752 753 754 754 755 755 756 756 756 756 755 755 754 754 754 753 751 750 747 744
759 758 756 757 761 760 755 751 751 750 747 750 754 752 750 754 757 754 745 739 741 742 736 734 737 736 736 737 735 734 733 729 725 723 720 718 717 717 715 713 711 710 706 703 706 708 708 709 711 713 715 717 720 722 723 726 729 731 734 736 739 742 745 748 749 750 751 752 752 753 754 754 755 755 755 754 754 753 752 752 752 751 750 748 745 742
758 763 762 757 754 756 756 754 755 754 751 752 755 753 753 755 751 743 741 741 741 742 739 736 734 734 736 736 734 733 731 727 725 723 721 720 718 716 715 712 711 711 710 709 709 709 708 709 711 713 715 717 719 721 723 725 728 730 733 736 739 743 746 748 748 749 750 751 751 752 753 753 753 753 753 752 752 751 750 750 750 750 748 746 743 740
754 761 763 755 750 756 760 755 748 745 743 744 747 747 748 747 742 741 745 744 742 744 744 739 736 735 735 735 733 731 729 727 725 722 722 722 720 717 715 713 712 711 710 708 707 708 709 709 709 711 714 717 719 720 722 725 727 729 733 736 739 744 747 748 748 748 749 750 750 751 751 751 751 752 751 750 750 749 748 748 749 748 746 744 742 739
755 756 759 754 750 753 754 747 741 740 739 738 739 738 738 738 739 743 748 748 744 742 741 740 739 736 733 733 732 730 729 727 724 723 724 724 723 722 719 715 711 708 707 706 707 708 709 708 709 712 715 716 718 720 721 724 726 729 732 736 740 744 747 747 747 747 747 748 748 749 750 750 750 750 749 749 748 746 746 747 747 746 744 742 740 737
751 752 755 754 753 754 749 742 740 741 738 737 736 735 735 738 741 745 749 749 746 742 739 740 739 735 732 732 731 729 729 727 725 724 725 725 725 724 719 712 708 706 706 706 708 709 709 709 711 713 715 716 719 719 721 724 726 728 732 736 740 744 746 746 746 746 747 747 747 748 749 748 748 748 747 747 746 744 744 745 745 744 743 741 739 736
751 756 758 759 765 768 757 744 740 741 740 739 737 735 737 741 743 743 746 748 746 742 738 737 736 735 735 734 732 730 728 726 725 725 725 725 725 721 715 709 706 706 707 707 708 710 710 710 711 712 714 717 718 719 722 724 725 728 733 737 740 743 745 745 745 745 746 747 747 747 747 747 747 747 745 744 743 743 743 743 743 742 741 740 737 735
757 764 764 761 764 766 756 745 743 742 740 737 733 734 740 743 741 740 743 746 745 739 735 735 736 736 736 735 733 731 728 726 726 726 726 726 722 718 713 708 705 706 707 708 709 709 709 709 709 710 713 716 718 720 722 724 725 728 733 737 740 743 744 744 745 745 745 746 746 746 746 746 746 745 744 742 741 741 740 740 740 740 739 738 736 733
757 760 759 755 755 753 746 741 741 740 737 735 733 738 745 745 741 740 742 744 742 737 733 735 737 736 736 735 733 731 729 727 727 727 727 724 719 714 711 707 706 707 707 707 708 708 707 708 708 709 712 716 718 720 722 724 726 728 732 737 740 742 744 745 744 744 745 744 745 745 746 745 744 743 742 741 740 739 739 738 738 738 737 736 734 732
756 755 751 749 749 746 743 741 741 741 740 736 732 736 740 739 737 738 738 739 741 738 735 735 736 736 735 734 734 732 730 728 727 725 723 720 716 712 709 707 706 706 705 707 709 708 708 710 710 710 713 716 719 720 721 724 727 728 732 737 739 741 744 744 743 743 743 743 744 745 745 744 743 742 742 740 739 738 737 736 736 735 734 734 732 730
754 751 749 748 746 742 739 738 739 739 736 731 729 731 733 732 734 735 735 736 738 736 734 735 736 736 735 734 735 734 731 729 727 724 721 719 716 712 710 708 706 705 706 707 707 707 708 711 712 712 713 715 718 719 721 724 726 728 732 737 739 741 742 741 741 741 741 742 743 744 745 744 742 741 741 739 738 737 735 735 734 733 732 731 730 727